When you browse on this site, cookies collect data to enhance your experience and personalize the content and advertising you see.
Visit our Privacy Policy to learn more. By continuing to use the site, you agree to this use of cookies and data.
  • In Hungary
  • List of Countries
  • For 7 days
  • Water Temperature
  • Weather Map
  • News
  • Weather Widgets
  • user-avatar
    Login

    Hourly Weather Stachy

    Today, 7 December, Saturday

    Time Temperature Precipitation Wind Pressure Humidity
    00:00 0°C° 0 mm 5 mps 743 mmHg 57%
    01:00 0°C° 0 mm 5 mps 743 mmHg 57%
    02:00 0°C° 0 mm 5 mps 742 mmHg 59%
    03:00 -1°C° 0 mm 6 mps 741 mmHg 61%
    04:00 -1°C° 0 mm 6 mps 741 mmHg 63%
    05:00 -1°C° 0 mm 6 mps 741 mmHg 65%
    06:00 -1°C° 0 mm 6 mps 740 mmHg 68%
    07:00 -1°C° 0 mm 6 mps 740 mmHg 70%
    08:00 -1°C° 0.2 mm 6 mps 740 mmHg 75%
    09:00 +1°C° 0.2 mm 6 mps 740 mmHg 81%
    10:00 0°C° 0.2 mm 7 mps 739 mmHg 86%
    11:00 +2°C° 0.2 mm 7 mps 739 mmHg 86%
    12:00 +3°C° 0.2 mm 7 mps 739 mmHg 86%
    13:00 +4°C° 0.2 mm 7 mps 738 mmHg 87%
    14:00 +4°C° 0.4 mm 7 mps 738 mmHg 88%
    15:00 +4°C° 0.4 mm 7 mps 738 mmHg 89%
    16:00 +4°C° 0.4 mm 7 mps 738 mmHg 90%
    17:00 +4°C° 0.2 mm 6 mps 739 mmHg 89%
    18:00 +4°C° 0.2 mm 6 mps 739 mmHg 88%
    19:00 +5°C° 0.2 mm 5 mps 740 mmHg 87%
    20:00 +5°C° 0.1 mm 5 mps 740 mmHg 84%
    21:00 +3°C° 0.1 mm 5 mps 740 mmHg 81%
    22:00 +3°C° 0.1 mm 5 mps 741 mmHg 78%
    23:00 +2°C° 0 mm 5 mps 741 mmHg 79%

    Tomorrow, 8 December, Sunday

    Time Temperature Precipitation Wind Pressure Humidity
    00:00 +2°C° 0 mm 6 mps 742 mmHg 79%
    01:00 +2°C° 0 mm 6 mps 742 mmHg 80%
    02:00 +1°C° 0 mm 5 mps 742 mmHg 81%
    03:00 +1°C° 0 mm 5 mps 742 mmHg 83%
    04:00 +1°C° 0 mm 5 mps 742 mmHg 84%
    05:00 +1°C° 0 mm 5 mps 742 mmHg 86%
    06:00 +1°C° 0 mm 4 mps 743 mmHg 88%
    07:00 +1°C° 0 mm 4 mps 743 mmHg 90%
    08:00 +2°C° 0.3 mm 5 mps 743 mmHg 90%
    09:00 +3°C° 0.3 mm 5 mps 743 mmHg 90%
    10:00 +4°C° 0.3 mm 6 mps 742 mmHg 89%
    11:00 +4°C° 0 mm 6 mps 742 mmHg 86%
    12:00 +4°C° 0 mm 6 mps 742 mmHg 83%
    13:00 +4°C° 0 mm 7 mps 741 mmHg 80%
    14:00 +4°C° 0 mm 7 mps 741 mmHg 79%
    15:00 +4°C° 0 mm 7 mps 740 mmHg 77%
    16:00 +4°C° 0 mm 7 mps 740 mmHg 76%
    17:00 +4°C° 0 mm 7 mps 739 mmHg 76%
    18:00 +4°C° 0 mm 7 mps 739 mmHg 75%
    19:00 +4°C° 0 mm 7 mps 738 mmHg 75%
    20:00 +5°C° 0 mm 7 mps 738 mmHg 77%
    21:00 +5°C° 0 mm 7 mps 737 mmHg 79%
    22:00 +5°C° 0 mm 7 mps 737 mmHg 82%
    23:00 +5°C° 0.1 mm 7 mps 736 mmHg 83%

    Day after tomorrow, 9 December, Monday

    Time Temperature Precipitation Wind Pressure Humidity
    00:00 +6°C° 0.1 mm 7 mps 736 mmHg 85%
    01:00 +7°C° 0.1 mm 6 mps 736 mmHg 87%
    02:00 +7°C° 0 mm 6 mps 736 mmHg 87%
    03:00 +7°C° 0 mm 6 mps 736 mmHg 87%
    04:00 +7°C° 0 mm 6 mps 736 mmHg 87%
    05:00 +6°C° 0 mm 5 mps 736 mmHg 88%
    06:00 +6°C° 0 mm 5 mps 736 mmHg 88%
    07:00 +6°C° 0 mm 5 mps 736 mmHg 88%
    08:00 +6°C° 0 mm 5 mps 736 mmHg 85%
    09:00 +6°C° 0 mm 5 mps 736 mmHg 83%
    10:00 +6°C° 0 mm 5 mps 736 mmHg 80%
    11:00 +6°C° 0 mm 4 mps 737 mmHg 78%
    12:00 +6°C° 0 mm 4 mps 737 mmHg 76%
    13:00 +6°C° 0 mm 4 mps 737 mmHg 74%
    14:00 +6°C° 0 mm 4 mps 737 mmHg 78%
    15:00 +5°C° 0 mm 3 mps 737 mmHg 81%
    16:00 +4°C° 0 mm 3 mps 737 mmHg 85%
    17:00 +4°C° 0 mm 3 mps 737 mmHg 86%
    18:00 +3°C° 0 mm 3 mps 738 mmHg 88%
    19:00 +4°C° 0 mm 2 mps 738 mmHg 89%
    20:00 +3°C° 0 mm 3 mps 738 mmHg 89%
    21:00 +2°C° 0 mm 3 mps 738 mmHg 89%
    22:00 +2°C° 0 mm 3 mps 738 mmHg 89%
    23:00 +2°C° 0 mm 3 mps 738 mmHg 90%

    10 December, Tuesday

    Time Temperature Precipitation Wind Pressure Humidity
    00:00 +2°C° 0 mm 3 mps 738 mmHg 90%
    01:00 +2°C° 0 mm 3 mps 738 mmHg 90%
    02:00 +2°C° 0 mm 3 mps 739 mmHg 91%
    03:00 +1°C° 0 mm 3 mps 739 mmHg 91%
    04:00 +1°C° 0 mm 3 mps 739 mmHg 92%
    05:00 +1°C° 0 mm 3 mps 739 mmHg 92%
    06:00 +1°C° 0 mm 3 mps 739 mmHg 92%
    07:00 +2°C° 0 mm 2 mps 740 mmHg 93%
    08:00 +2°C° 0.1 mm 3 mps 740 mmHg 92%
    09:00 +2°C° 0.1 mm 3 mps 741 mmHg 92%
    10:00 +3°C° 0.1 mm 3 mps 741 mmHg 91%
    11:00 +3°C° 0 mm 3 mps 741 mmHg 90%
    12:00 +3°C° 0 mm 3 mps 742 mmHg 89%
    13:00 +3°C° 0 mm 3 mps 742 mmHg 88%
    14:00 +3°C° 0 mm 3 mps 743 mmHg 89%
    15:00 +3°C° 0 mm 3 mps 743 mmHg 90%
    16:00 +4°C° 0 mm 2 mps 743 mmHg 91%
    17:00 +3°C° 0 mm 3 mps 744 mmHg 91%
    18:00 +3°C° 0 mm 3 mps 745 mmHg 91%
    19:00 +3°C° 0 mm 3 mps 746 mmHg 91%
    20:00 +3°C° 0 mm 4 mps 747 mmHg 87%
    21:00 +1°C° 0 mm 5 mps 748 mmHg 82%
    22:00 -1°C° 0 mm 6 mps 749 mmHg 78%
    23:00 0°C° 0 mm 5 mps 750 mmHg 75%

    11 December, Wednesday

    Time Temperature Precipitation Wind Pressure Humidity
    00:00 -1°C° 0 mm 4 mps 750 mmHg 73%
    01:00 -1°C° 0 mm 3 mps 751 mmHg 70%
    02:00 -1°C° 0 mm 3 mps 752 mmHg 72%
    03:00 -1°C° 0 mm 2 mps 752 mmHg 73%
    04:00 -2°C° 0 mm 2 mps 753 mmHg 74%
    05:00 -2°C° 0 mm 2 mps 753 mmHg 74%
    06:00 0°C° 0 mm 1 mps 754 mmHg 74%
    07:00 0°C° 0 mm 1 mps 754 mmHg 74%
    08:00 +1°C° 0 mm 1 mps 754 mmHg 71%
    09:00 +2°C° 0 mm 1 mps 754 mmHg 69%
    10:00 +2°C° 0 mm 1 mps 755 mmHg 66%
    11:00 +3°C° 0 mm 1 mps 754 mmHg 63%
    12:00 +2°C° 0 mm 2 mps 754 mmHg 60%
    13:00 +2°C° 0 mm 2 mps 754 mmHg 56%
    14:00 +2°C° 0 mm 2 mps 754 mmHg 60%
    15:00 +1°C° 0 mm 2 mps 753 mmHg 64%
    16:00 -1°C° 0 mm 2 mps 753 mmHg 68%
    17:00 -1°C° 0 mm 2 mps 753 mmHg 67%
    18:00 -1°C° 0 mm 3 mps 753 mmHg 66%
    19:00 -1°C° 0 mm 3 mps 753 mmHg 65%
    20:00 -2°C° 0 mm 4 mps 753 mmHg 64%
    21:00 -2°C° 0 mm 4 mps 752 mmHg 63%
    22:00 -3°C° 0 mm 4 mps 752 mmHg 62%
    23:00 -3°C° 0 mm 4 mps 752 mmHg 63%

    12 December, Thursday

    Time Temperature Precipitation Wind Pressure Humidity
    00:00 -3°C° 0 mm 4 mps 751 mmHg 64%
    01:00 -3°C° 0 mm 4 mps 751 mmHg 64%
    02:00 -3°C° 0 mm 4 mps 751 mmHg 66%
    03:00 -2°C° 0 mm 3 mps 750 mmHg 68%
    04:00 -2°C° 0 mm 3 mps 750 mmHg 70%
    05:00 -4°C° 0 mm 3 mps 750 mmHg 71%
    06:00 -4°C° 0 mm 3 mps 750 mmHg 73%
    07:00 -4°C° 0 mm 4 mps 749 mmHg 75%
    08:00 -3°C° 0 mm 4 mps 749 mmHg 73%
    09:00 -3°C° 0 mm 4 mps 749 mmHg 72%
    10:00 -2°C° 0 mm 4 mps 749 mmHg 70%
    11:00 -2°C° 0 mm 4 mps 749 mmHg 68%
    12:00 -2°C° 0 mm 4 mps 748 mmHg 67%
    13:00 -1°C° 0 mm 4 mps 748 mmHg 66%
    14:00 -2°C° 0 mm 4 mps 748 mmHg 66%
    15:00 -2°C° 0 mm 4 mps 747 mmHg 66%
    16:00 -2°C° 0 mm 3 mps 747 mmHg 65%
    17:00 -2°C° 0 mm 3 mps 747 mmHg 65%
    18:00 -2°C° 0 mm 3 mps 746 mmHg 64%
    19:00 -2°C° 0 mm 3 mps 746 mmHg 63%
    20:00 -3°C° 0 mm 4 mps 746 mmHg 61%
    21:00 -3°C° 0 mm 4 mps 745 mmHg 60%
    22:00 -3°C° 0 mm 4 mps 745 mmHg 59%
    23:00 -3°C° 0 mm 4 mps 744 mmHg 59%
    Show more